Regional Weather Roundup
Issued by NWS Wakefield, VA

Home | Current Version | Previous Version | Graphics & Text | Print | Product List | Glossary On
Versions: 1 2 3 4 5 6 7 8 9 10 11 12 13 14 15 16 17 18 19 20 21 22 23 24 25 26 27 28 29 30 31 32 33 34 35 36 37 38 39 40 41 42 43 44 45 46 47 48 49 50
000
ASUS41 KAKQ 030315
RWRAKQ

REGIONAL WEATHER ROUNDUP
NATIONAL WEATHER SERVICE WAKEFIELD VA
1100 PM EDT THU JUL 02 2015

Note: "fair" indicates few or no clouds below 12,000 feet with no
significant weather and/or obstructions to visibility. * = Denotes
station may not report precipitation (e.g., rain,snow,etc.),
thunder or fog.

VAZ042-051-052>054-056-030400-
NORTHERN VIRGINIA

CITY           SKY/WX    TMP DP  RH WIND       PRES   REMARKS
WASH NATIONAL  PTCLDY    73  67  81 N3        29.91F
DULLES         PTCLDY    65  62  90 CALM      29.91F
FORT BELVOIR   PTCLDY    64  64 100 CALM      29.90F FOG
QUANTICO       CLEAR     68  65  90 NW8       29.91F
FREDERICKSBRG* CLEAR     69  69 100 NW3       29.90F
STAFFORD*      CLEAR     64  62  95 NW3       29.95F FOG
WARRENTON      FOG       63  63 100 CALM      29.91F VSB 1/4
CULPEPER*      CLEAR     62  62 100 CALM      29.93S FOG
MANASSAS*      CLEAR     64  63  94 CALM      29.91F
LEESBURG*      PTCLDY    66  66 100 CALM      29.93F FOG
WINCHESTER     CLEAR     66  64  94 CALM      29.94S FOG
FRONT ROYAL*   FAIR      64  63  94 S5        29.93S
LURAY*         FAIR      64  64 100 CALM      29.95S FOG
$$

VAZ048-049-060>072-079>083-030400-
CENTRAL AND SOUTH CENTRAL VIRGINIA

CITY           SKY/WX    TMP DP  RH WIND       PRES   REMARKS
RICHMOND       CLOUDY    70  65  84 N3        29.91R
CHESTERFIELD*  NOT AVBL
PETERSBURG*    CLEAR     69  69 100 CALM      29.92R FOG
HANOVER        CLEAR     66  65  96 CALM      29.93R FOG
TAPPAHANNOCK*  CLEAR     67  64  87 CALM      29.91S FOG
QUINTON*       FAIR      67  67  97 CALM      29.90S
CHARLOTTSVILLE CLEAR     66  64  93 CALM      29.93S FOG
GORDONSVILLE*  FAIR      63  63 100 CALM      29.92S FOG
ORANGE*        CLEAR     64  64 100 CALM      29.94S FOG
LOUISA*          N/A     63  61  94 CALM      29.92S FOG
BUMPASS*       FAIR      66  65  98 CALM      29.92R
FARMVILLE*     CLEAR     67  67 100 CALM      29.93R
CREWE*         FAIR      67  66  95 CALM      29.93R
FORT PICKETT*  FAIR      68  67  97 N6        29.93R
CHASE CITY*    MOCLDY    69  69 100 CALM      29.94R
CLARKSVILLE*   FAIR      70  64  83 CALM      29.92S
SOUTH HILL*    PTCLDY    68  67  97 CALM      29.98R
LAWRENCEVILLE* NOT AVBL
EMPORIA*         N/A     70  70 100 CALM      29.93R FOG
$$

VAZ088>098-030400-
SOUTHEAST VIRGINIA

CITY           SKY/WX    TMP DP  RH WIND       PRES   REMARKS
NORFOLK        PTCLDY    75  71  87 N6        29.89R
VIRGINIA BEACH MOCLDY    75  72  90 CALM      29.88R FOG
NORFOLK NAVAL  MOCLDY    73  71  93 N7        29.90R FOG
WEST POINT*    PTCLDY    71  68  90 CALM      29.91R
SALUDA*        FAIR      71  66  85 NW7       29.89R
NEWPORT NEWS   PTCLDY    71  69  93 CALM      29.90R FOG
LANGLEY AFB    MOCLDY    72  70  95 NW8       29.88R FOG
FORT EUSTIS    PTCLDY    71  71 100 NE2       29.88R
WILLIAMSBURG*    N/A     72  70  94 CALM      29.90R
HR EXEC AP*    MOCLDY    72  70  94 CALM      29.91R
FRANKLIN*      PTCLDY    70  70  98 CALM      29.91R FOG
WAKEFIELD      PTCLDY    71  68  90 CALM      29.90R FOG
$$

VAZ020-022-025-037-045-030400-
WEST CENTRAL AND SOUTHWEST VIRGINIA

CITY           SKY/WX    TMP DP  RH WIND       PRES   REMARKS
STAUNTON*      PTCLDY    66  63  91 CALM      29.97S FOG
WAYNESBORO*    FAIR      63  62  97 CALM      29.97R
HOT SPRINGS VA CLEAR     60  60 100 CALM      30.05R
LYNCHBURG      CLEAR     66  64  93 CALM      29.97R
DANVILLE       CLEAR     71  68  90 N3        29.95R
SOUTH BOSTON*  CLOUDY    70  68  94 MISG      29.94R
MARTINSVILLE   CLOUDY    69  69 100 CALM      30.00R FOG
ROANOKE        CLOUDY    69  65  86 CALM      29.98R
BLACKSBURG     CLOUDY    67  65  93 CALM      30.03R
DUBLIN*        CLOUDY    67  67 100 CALM      30.02R
MARION*        CLOUDY    67  65  92 W7        30.04S
HILLSVILLE*    MOCLDY    65  64  96 SE3       30.03R
RICHLANDS*     CLOUDY    66  64  92 CALM      30.01S
WISE*          CLOUDY    64  64 100 SW3       30.02R
ABINGDON*      MOCLDY    69  67  94 CALM      30.00R
$$

MDZ021>025-VAZ099-100-030400-
SOUTHERN MARYLAND AND THE DELMARVA PENINSULA

CITY           SKY/WX    TMP DP  RH WIND       PRES   REMARKS
PATUXENT RIVER CLOUDY    69  66  90 N5        29.89F
BAY BRIDGE APT   N/A     68  64  88 CALM      29.90F
LEONARDTOWN    CLEAR     66  63  88 CALM      29.91F
DOVER          PTCLDY    68  68 100 W6        29.87F
GEORGETOWN     PTCLDY    68  65  90 N3        29.89F FOG
EASTON         FOG       67  67 100 CALM      29.93F VSB 1/2
CAMBRIDGE        N/A     66  63  88 CALM      29.89F
SALISBURY      MOCLDY    68  66  93 N5        29.89F FOG
OCEAN CITY     MOCLDY    68  66  93 CALM      29.88R FOG
WALLOPS ISLAND CLOUDY    70  70 100 CALM      29.89S FOG
ACCOMACK*      PTCLDY    68  68 100 CALM      29.89R FOG
$$

NCZ012>017-030>032-030400-
NORTH CENTRAL AND EASTERN NORTH CAROLINA

CITY           SKY/WX    TMP DP  RH WIND       PRES   REMARKS
ROANOKE RAPIDS MOCLDY    70  70 100 N5        29.91S FOG
RALEIGH        CLOUDY    72  70  93 CALM      29.94R
ELIZABETH CITY CLOUDY    73  70  90 S6        29.91R
AHOSKIE*       CLOUDY    71  68  92 CALM      29.92R
EDENTON*       RAIN      74  70  88 CALM      29.90S
CURRITUCK*     CLOUDY    74  69  85 CALM      29.91R
KILL DEVIL HLS LGT RAIN  72  69  93 CALM      29.89S
MANTEO         LGT RAIN  73  72  97 CALM      29.91R
CAPE HATTERAS  MOCLDY    79  74  84 SW15G25   29.91R
TARBORO*         N/A     73  72  95 S3        29.93R FOG
GOLDSBORO      CLOUDY    75  71  88 SW12G18   29.90S
WASHINGTON     CLOUDY    72  71  96 CALM      29.91F
GREENVILLE     MOCLDY    73  72  94 W3        29.93S
NEW BERN       MOCLDY    81  72  74 SW9       29.91S
WILMINGTON     LGT RAIN  73  69  87 SW15G22   29.95R
$$

VAZ048-030400-
ELSEWHERE

CITY           SKY/WX    TMP DP  RH WIND       PRES   REMARKS
HARRISBURG PA  PTCLDY    69  64  84 CALM      29.91R
BALTIMORE      PTCLDY    65  63  93 CALM      29.90F
ANNAPOLIS      CLEAR     68  63  84 CALM      29.90S
ANDREWS AFB    PTCLDY    65  65  99 CALM      29.90F
PHILADELPHIA   MOCLDY    72  64  76 NW3       29.90R
HENDERSON NC   CLOUDY    72  68  89 N3        29.94R FOG
GREENSBORO     PTCLDY    72  69  90 CALM      29.96R
ROCKY MOUNT    LGT RAIN  74  73  97 S5        29.92R FOG
$$

VAZ100-030400-
MARINE

STATION/POSITION TIME  TEMP    WIND        PRES    WAVE   SWELL
                       AIR SEA DIR/SP/G            HT/PER HT/PER
                 (UTC) (F)     (DEG/KT/KT) (MB)    (FT/S) (FT/S)
BRANDYWINE LGT   0200   70 72   10/  8/ 11 1012.1R
CAPE MAY NJ      0200   68 77   40/  1/  2 1011.5R
LEWES DE         0200   70 72   10/  7/  8 1011.8R
15NM E FENWICK I 0250   71 73              1011.3R   3/ 8
OCEAN-CITY-INLET 0200   70 71   30/  5/  7 1011.4R
WACHAPREAGUE VA  0200   71 80  350/  4/  7 1011.8R
GOOSES REEF MD   0300   73 77  330/  6/  8 1013.3F
COVE POINT MD    0200   70     330/  5/  8 1013.0R
SOLOMONS ISLAND  0200      79                N/A
BISHOPS HEAD MD  0200   70     340/  4/  5 1012.1R
PINEY POINT MD   0200           10/  6/  7   N/A
CAMBRIDGE MD     0200   71 79  340/  3/  4 1012.1R
LEWISETTA VA     0200   72 80  310/  5/  7 1012.1R
RAPPAHANNOCK LGT 0200           10/ 11/ 12 1012.0R
STINGRAY PT      0300   74 80  340/ 10/ 14 1012.3R   1/ 3
YORK RVR RNG VA  0200   74     350/ 12/ 14 1010.7F
YORKTOWN VA      0200   73 80  340/  8/ 10 1011.2F
JAMESTOWN VA     0300   71 82   CALM  /  4   N/A
DOMINION TERM VA 0200   74     360/  7/  9 1011.4F
KIPTOPEKE VA     0200      84   20/  4/  5   N/A
CHES BAY BRIDGE  0200   76 77  340/ 10/ 12 1010.7F
CAPE HENRY VA    0200   75     320/  8/  9 1009.3F
CHESAPEAKE LGHT  0200   74     330/ 10/ 11 1011.3F
WILLOUBY STN VA  0200   74     340/  9/ 10 1012.4S
CAPE HENRY BUOY  0228      78                N/A     2/ 7
1ST LANDING BUOY 0300      76              1011.5R   1/ 4
CAPE CHARLES BUO 0226      76                N/A     2/ 8   2/ 8
OFFSHORE WE BUOY 0211      78                N/A     3/ 6   3/ 6
64NM E OF VA BCH 0250   75 77  200/  8/  8 1011.1S   4/ 8   3/ 8
DUCK PIER NC     0200   71 60   40/ 10/ 10 1010.8R
44100 DUCK FRF   0224      78                N/A     3/ 8
44056 DUCK FRF   0211      68                N/A     2/ 9
OREGON INLET NC  0200   76 83  330/  5/ 12 1011.7R
HATTERAS NC      0200   79 80  210/ 14/ 20 1011.9R
DIAMOND SHLS NC  0250   82 83  220/ 27/ 35 1012.1R   8/ 6   2/11
CAPE LOOKOUT NC  0300   81     230/ 13/ 17 1013.1R
$$



USA.gov is the U.S. government's official web portal to all federal, state and local government web resources and services.